User: anonymous   Login
Location: ??????
(55.6130°N, 37.7882°E)
Time: 07:04:22
(UTC+00:00)
Language:

Cosmos 1743 - Orbit

View from above orbital plane
View from above orbital plane
View from above satellite
View from above satellite

Ground track
Ground track

The orbit data is extracted from the following two-line orbital elements,

1 16719U 86034A   24166.90448702  .00008175  00000-0  29756-3 0  9991
2 16719  82.5468 359.9754 0010560  45.6207 314.5895 15.28014795 82790
Epoch (UTC): 14 June 2024 21:42:27
Eccentricity: 0.0010560
inclination: 82.5468°
perigee height: 474 km
apogee height: 489 km
right ascension of ascending node: 359.9754°
argument of perigee: 45.6207°
revolutions per day: 15.28014795
mean anomaly at epoch: 314.5895°
orbit number at epoch: 8279

The dashed part of the orbit path shows where the satellite is in the earth's shadow,  

DLR